Flag for China Weather past 2 weeks in Tianjin, Tianjin Municipality, China

Now
90 °F

Clear.


Feels Like: 90 °F
Forecast: 70 / 96 °F
Wind: 8 mph from Southwest

Location: Tianjin / Zhangguizhu

Current Time: Aug 20, 2014 at 5:45:33 PM

Latest Report: Aug 20, 2014 at 5:00 PM


Visibility: 4 mi

Pressure: 29.74 "Hg

Humidity: 41%

Dew point: 63 °F

Location of TianjinLocation

Historic Weather in Tianjin — Graph

°F

Tianjin temperature yesterday

Maximum temperature yesterday: 90 °F (at 2:00 PM)
Minimum temperature yesterday: 72 °F (at 2:30 AM)
Average temperature yesterday: 80 °F

Past Weeks' High & Low Weather Summary

 TemperatureHumidityPressure
High93 °F (Aug 11, 1:30 PM)94% (Aug 14, 12:00 AM)29.92 "Hg (Aug 14, 12:00 AM)
Low64 °F (Aug 14, 3:00 AM)21% (Aug 11, 1:30 PM)29.56 "Hg (Aug 10, 3:00 PM)
Average80 °F59%29.75 "Hg
* Reported Aug 5 4:00 PM — Aug 20 4:30 PM, Tianjin, Weather by CustomWeather, © 2014

Note: Actual official high and low records may vary slightly from our data, if they occured in-between our weather recording intervals... More about our weather records

Advertising

Tianjin weather history for previous 24 hours

 ConditionsComfort  
Time TempWeatherWind HumidityBarometerVisibility
4:30 PM
Aug 20
90 °FClear.8 mph41%29.74 "Hg4 mi
4:00 PM90 °FClear.8 mph41%29.74 "Hg4 mi
3:30 PM90 °FClear.8 mph41%29.74 "Hg4 mi
3:00 PM90 °FClear.10 mph41%29.74 "Hg4 mi
2:30 PM90 °FClear.10 mph41%29.77 "Hg4 mi
2:00 PM90 °FClear.8 mph43%29.77 "Hg4 mi
1:30 PM90 °FClear.8 mph43%29.77 "Hg4 mi
1:00 PM90 °FClear.6 mph43%29.80 "Hg4 mi
12:30 PM88 °FClear.6 mph46%29.80 "Hg4 mi
12:00 PM88 °FClear.8 mph46%29.83 "Hg4 mi
11:30 AM86 °FClear.8 mph46%29.83 "Hg4 mi
10:30 AM84 °FHaze.8 mph48%29.86 "Hg3 mi
10:00 AM84 °FHaze.8 mph51%29.86 "Hg3 mi
9:30 AM82 °FHaze.6 mph58%29.86 "Hg3 mi
9:00 AM81 °FHaze.8 mph58%29.86 "Hg2 mi
8:30 AM81 °FHaze.8 mph58%29.86 "Hg2 mi
8:00 AM79 °FHaze.8 mph61%29.86 "Hg2 mi
7:30 AM77 °FHaze.3 mph69%29.86 "Hg1 mi
7:00 AM75 °FHaze.3 mph69%29.86 "Hg1 mi
6:30 AM73 °FHaze.1 mph74%29.86 "Hg1 mi
6:00 AM73 °FHaze.3 mph74%29.83 "Hg1 mi
5:30 AM73 °FHaze.1 mph74%29.83 "Hg2 mi
5:00 AM73 °FHaze.1 mph74%29.83 "Hg2 mi
4:30 AM73 °FHaze.3 mph74%29.83 "Hg2 mi
4:00 AM75 °FHaze.3 mph69%29.83 "Hg2 mi
3:30 AM75 °FHaze.3 mph69%29.83 "Hg2 mi
3:00 AM75 °FHaze.3 mph69%29.83 "Hg2 mi
2:30 AM75 °FHaze.3 mph69%29.83 "Hg2 mi
2:00 AM77 °FHaze.3 mph65%29.83 "Hg3 mi
1:30 AM77 °FHaze.3 mph65%29.83 "Hg3 mi
1:00 AM77 °FHaze.3 mph65%29.86 "Hg3 mi
12:30 AM77 °FHaze.1 mph65%29.86 "Hg3 mi
12:00 AM79 °FClear.3 mph61%29.86 "Hg4 mi
11:30 PM
Aug 19
79 °FClear.3 mph61%29.86 "Hg4 mi
11:00 PM79 °FClear.6 mph58%29.86 "Hg4 mi
10:30 PM79 °FClear.3 mph58%29.86 "Hg5 mi
10:00 PM81 °FClear.6 mph54%29.86 "Hg10 mi
9:30 PM81 °FClear.6 mph54%29.86 "Hg10 mi
9:00 PM81 °FClear.6 mph54%29.86 "Hg10 mi
8:30 PM81 °FClear.3 mph54%29.86 "Hg10 mi
8:00 PM82 °FClear.6 mph48%29.83 "Hg10 mi
7:30 PM84 °FClear.6 mph45%29.83 "Hg10 mi
7:00 PM84 °FSunny.8 mph45%29.83 "Hg10 mi
6:30 PM86 °FSunny.6 mph40%29.80 "Hg10 mi
6:00 PM88 °FSunny.6 mph38%29.80 "Hg10 mi
5:30 PM88 °FSunny.6 mph35%29.83 "Hg10 mi
5:00 PM88 °FSunny.6 mph35%29.83 "Hg10 mi
Weather by CustomWeather, © 2014

See weather overviewHow to use our weather pages